CHAR37 Weather Reports


time (UTC)temp
C
wind
direction
speed
KPH
gust
KPH
rain 1hr
cm
rain 24hr
cm
rain mn
cm
humidity
%
barometer
mb
20260507093049 8 0 0.0 6.4 0.00 0.89 0.33 88 1005.6
20260507091546 8 338 8.0 14.5 0.00 0.89 0.33 87 1005.6
20260507090050 8 331 6.4 20.9 0.00 0.89 0.33 86 1005.6
20260507084548 8 338 11.3 22.5 0.00 0.89 0.33 87 1005.8
20260507083049 8 329 12.9 20.9 0.00 0.89 0.33 90 1005.0
20260507081553 9 334 8.0 14.5 0.00 0.89 0.33 91 1005.4
20260507080053 9 333 4.8 16.1 0.00 0.89 0.33 91 1005.1
20260507074558 9 325 8.0 16.1 0.00 0.89 0.33 91 1005.2
20260507073101 9 350 8.0 22.5 0.00 0.89 0.33 91 1004.9
20260507071554 9 335 8.0 16.1 0.00 0.89 0.33 92 1005.0
20260507070105 10 320 6.4 11.3 0.00 0.89 0.33 93 1004.8
20260507064556 10 336 3.2 8.0 0.00 0.89 0.33 94 1004.4
20260507060055 10 335 8.0 14.5 0.00 0.89 0.33 95 1004.2
20260507054550 10 338 9.7 24.1 0.03 0.89 0.33 96 1004.5
20260507053102 10 355 9.7 24.1 0.13 0.89 0.33 97 1004.1
20260507051553 11 336 4.8 14.5 0.28 0.89 0.33 97 1004.3
20260507050050 10 344 6.4 12.9 0.33 0.89 0.33 97 1003.9
20260507044606 10 323 3.2 9.7 0.33 0.86 0.30 97 1003.7
20260507043050 10 298 11.3 25.7 0.23 0.76 0.20 97 1004.2
20260507041551 10 231 9.7 20.9 0.08 0.61 0.05 97 1003.7
20260507040101 10 187 11.3 17.7 0.03 0.56 0.00 97 1003.3
20260507034547 10 215 11.3 19.3 0.00 0.53 0.53 97 1003.4
20260507033107 10 188 14.5 27.4 0.03 0.53 0.53 97 1003.5
20260507031559 10 184 17.7 29.0 0.03 0.53 0.53 97 1003.5
20260507030107 10 170 19.3 30.6 0.03 0.53 0.53 97 1003.5
20260507014559 10 187 19.3 29.0 0.03 0.51 0.51 96 1004.6
20260507013100 10 166 19.3 30.6 0.05 0.51 0.51 96 1004.7
20260507011557 10 184 19.3 27.4 0.08 0.51 0.51 96 1004.8
20260507010054 10 161 22.5 35.4 0.05 0.48 0.48 96 1004.8
20260507004554 10 184 19.3 33.8 0.05 0.48 0.48 96 1005.0
20260507003050 10 173 22.5 38.6 0.03 0.46 0.46 96 1005.1
20260507001556 10 150 22.5 38.6 0.00 0.43 0.43 95 1005.1
20260507000051 10 159 22.5 35.4 0.00 0.43 0.43 95 1004.9
20260506234555 10 173 24.1 41.8 0.00 0.43 0.43 95 1004.9
20260506233050 10 187 25.7 43.5 0.00 0.43 0.43 94 1005.2
20260506231554 10 173 22.5 33.8 0.00 0.43 0.43 94 1005.2
20260506230050 10 198 22.5 35.4 0.03 0.43 0.43 94 1005.4
20260506150049 10 191 14.5 20.9 0.00 0.00 0.00 90 1008.8
20260506144549 10 180 16.1 24.1 0.00 0.00 0.00 90 1008.6
20260506143045 10 169 12.9 25.7 0.00 0.00 0.00 90 1008.9
20260506141550 10 167 17.7 25.7 0.00 0.00 0.00 91 1009.2
20260506140048 10 171 16.1 24.1 0.00 0.00 0.00 91 1009.3
20260506134553 10 173 16.1 25.7 0.00 0.00 0.00 90 1009.2
20260506133047 10 175 17.7 25.7 0.00 0.00 0.00 90 1009.0
20260506131550 10 171 17.7 24.1 0.00 0.00 0.00 90 1009.0
20260506130059 10 167 17.7 24.1 0.00 0.00 0.00 90 1008.9
20260506124557 10 175 19.3 27.4 0.00 0.00 0.00 89 1009.0
20260506123047 10 192 11.3 17.7 0.00 0.00 0.00 89 1009.1
20260506121548 10 182 11.3 19.3 0.00 0.00 0.00 89 1009.1
20260506120050 10 175 14.5 22.5 0.00 0.00 0.00 89 1009.2